Flag for Netherlands Weather past 2 weeks in Eindhoven, Netherlands

Now
66 °F

Mild.


Feels Like: 66 °F
Forecast: 57 / 70 °F
Wind: 6 mph from Northeast

Location: Eindhoven Airport

Current Time: Aug 4, 2015 at 1:46:05 AM

Latest Report: Aug 4, 2015 at 12:55 AM


Visibility: N/A

Pressure: 29.86 "Hg

Humidity: 88%

Dew point: 63 °F

Location of EindhovenLocation

Historic Weather in Eindhoven — Graph

°F

Eindhoven temperature yesterday

Maximum temperature yesterday: 91 °F (at 3:25 PM)
Minimum temperature yesterday: 59 °F (at 6:25 AM)
Average temperature yesterday: 77 °F

Past Weeks' High & Low Weather Summary

 TemperatureHumidityPressure
High91 °F (Aug 3, 3:25 PM)100% (Jul 20, 2:25 AM)30.15 "Hg (Jul 20, 2:25 AM)
Low41 °F (Jul 31, 4:55 AM)26% (Aug 3, 4:55 PM)29.45 "Hg (Jul 25, 6:55 AM)
Average63 °F72%29.88 "Hg
* Reported Jul 20 12:25 AM — Aug 4 12:55 AM, Eindhoven, Weather by CustomWeather, © 2015

Note: Actual official high and low records may vary slightly from our data, if they occured in-between our weather recording intervals... More about our weather records

Advertising

Eindhoven weather history for previous 24 hours

 ConditionsComfort  
Time TempWeatherWind HumidityBarometerVisibility
12:55 AM
Tue, Aug 4
66 °FMild.6 mph88%29.86 "HgN/A
12:25 AM66 °FMild.7 mph88%29.86 "HgN/A
11:55 PM
Mon, Aug 3
68 °FPassing clouds.5 mph83%29.89 "HgN/A
11:25 PM68 °FPassing clouds.7 mph83%29.89 "HgN/A
10:55 PM70 °FPassing clouds.7 mph78%29.89 "HgN/A
10:25 PM73 °FMild.7 mph69%29.89 "HgN/A
9:55 PM73 °FBroken clouds.6 mph69%29.89 "HgN/A
9:25 PM75 °FPassing clouds.6 mph65%29.89 "HgN/A
8:55 PM79 °FPartly sunny.8 mph58%29.89 "HgN/A
8:25 PM81 °FPartly sunny.8 mph58%29.89 "HgN/A
7:55 PM82 °FScattered clouds.5 mph55%29.86 "HgN/A
7:25 PM86 °FPassing clouds.7 mph49%29.86 "HgN/A
6:55 PM88 °FPassing clouds.5 mph40%29.86 "HgN/A
6:25 PM90 °FScattered clouds.13 mph27%29.86 "HgN/A
5:55 PM90 °FPassing clouds.12 mph26%29.89 "HgN/A
5:25 PM90 °FPassing clouds.13 mph26%29.89 "HgN/A
4:55 PM91 °FHot.17 mph26%29.89 "HgN/A
4:25 PM91 °FHot.14 mph28%29.89 "HgN/A
3:55 PM91 °FHot.17 mph28%29.89 "HgN/A
3:25 PM91 °FPassing clouds.16 mph32%29.89 "HgN/A
2:55 PM90 °FPassing clouds.14 mph31%29.89 "HgN/A
2:25 PM90 °FPassing clouds.16 mph31%29.89 "HgN/A
1:58 PM90 °FPassing clouds.16 mph31%29.92 "HgN/A
1:25 PM90 °FPassing clouds.14 mph29%29.92 "HgN/A
12:55 PM88 °FPleasantly warm.13 mph33%29.92 "HgN/A
12:25 PM86 °FPleasantly warm.12 mph35%29.92 "HgN/A
11:55 AM86 °FScattered clouds.12 mph38%29.92 "HgN/A
11:25 AM84 °FPassing clouds.10 mph40%29.92 "HgN/A
10:55 AM82 °FPassing clouds.12 mph42%29.92 "HgN/A
10:25 AM81 °FWarm.8 mph48%29.92 "HgN/A
9:55 AM77 °FWarm.8 mph51%29.92 "HgN/A
9:25 AM73 °FMild.9 mph53%29.92 "HgN/A
8:55 AM72 °FMild.10 mph57%29.92 "HgN/A
8:25 AM68 °FMild.7 mph60%29.92 "HgN/A
7:55 AM66 °FPassing clouds.8 mph64%29.92 "HgN/A
7:25 AM63 °FMild.8 mph73%29.92 "HgN/A
6:55 AM61 °FCool.6 mph77%29.92 "HgN/A
6:25 AM59 °FCool.6 mph77%29.92 "HgN/A
5:55 AM61 °FCool.7 mph72%29.92 "HgN/A
4:55 AM61 °FPassing clouds.6 mph72%29.95 "HgN/A
4:25 AM63 °FMild.6 mph68%29.95 "HgN/A
3:55 AM64 °FMild.5 mph64%29.95 "HgN/A
3:25 AM66 °FMild.6 mph56%29.95 "HgN/A
2:55 AM66 °FPassing clouds.6 mph56%29.98 "HgN/A
2:25 AM68 °FHigh level clouds.7 mph53%29.98 "HgN/A
1:55 AM68 °FHigh level clouds.8 mph53%29.98 "HgN/A
1:25 AM68 °FPassing clouds.7 mph53%29.98 "HgN/A
Weather by CustomWeather, © 2015

See weather overviewHow to use our weather pages